New York, NY

4:00 AM EDT on March 28, 2017 (GMT -0400)
La Guardia

Weather History for KLGA - April, 2013

Change the Weather History Date:

Friday, April 5, 2013

  Actual Average Record
Temperature  
Mean Temperature 52 °F 49 °F  
Max Temperature 61 °F 57 °F 74 °F (1989)
Min Temperature 42 °F 41 °F 25 °F (1995)
Degree Days  
Heating Degree Days 13 16  
Month to date heating degree days 99 85  
Since 1 July heating degree days 4046 4221  
Cooling Degree Days 0 0  
Month to date cooling degree days 0 0  
Year to date cooling degree days 0 0  
Growing Degree Days 2 (Base 50)    
Moisture  
Dew Point 23 °F    
Average Humidity 39    
Maximum Humidity 62    
Minimum Humidity 16    
Precipitation  
Precipitation T in 0.14 in 2.12 in (1984)
Month to date precipitation 0.01 0.70  
Year to date precipitation 8.28 10.60  
Snow  
Snow 0.00 in 0.00 in T in (2007)
Month to date snowfall 0.0 0.2  
Since 1 July snowfall 22.2 26.6  
Snow Depth 0.00 in    
Sea Level Pressure  
Sea Level Pressure 29.89 in    
Wind  
Wind Speed 12 mph (WNW)    
Max Wind Speed 26 mph    
Max Gust Speed 33 mph    
Visibility 10 miles    
Events Rain    
T = Trace of Precipitation, MM = Missing Value Source: NWS Daily Summary

Daily Weather History Graph

Daily Weather History Graph

Search for Another Location

Airport or City:

Trip Planner

Search our weather history database for the weather conditions in past years. The results will help you decide how hot, cold, wet, or windy it might be!

Date:

Astronomy

Apr. 05, 2013 Rise Set
Actual Time 6:32 AM EDT 7:24 PM EDT
Civil Twilight 6:04 AM EDT 7:52 PM EDT
Nautical Twilight 5:31 AM EDT 8:25 PM EDT
Astronomical Twilight 4:57 AM EDT 9:00 PM EDT
Moon 3:39 AM EDT (4/5) 2:44 PM EDT (4/5)
Length of Visible Light 13h 48m
Length of Day
12h 52m
Waning Crescent, 24% of the Moon is Illuminated
Apr 5
Waning Crescent
Apr 10
New
Apr 18
First Quarter
Apr 25
Full
May 2
Last Quarter

Hourly Weather History & Observations

Time (EDT) Temp. Windchill Dew Point Humidity Pressure Visibility Wind Dir Wind Speed Gust Speed Precip Events Conditions
12:51 AM 43.0 °F 36.8 °F 18.0 °F 37% 30.07 in 10.0 mi SSW 11.5 mph - N/A   Overcast
1:51 AM 42.1 °F 35.2 °F 24.1 °F 49% 30.06 in 10.0 mi SSW 12.7 mph - N/A   Overcast
2:51 AM 42.1 °F 37.1 °F 26.1 °F 53% 30.02 in 10.0 mi SSW 8.1 mph - N/A   Overcast
3:51 AM 42.1 °F 36.6 °F 27.0 °F 55% 30.00 in 10.0 mi SSW 9.2 mph - N/A   Overcast
4:51 AM 42.1 °F 37.1 °F 28.0 °F 58% 29.97 in 10.0 mi South 8.1 mph - N/A   Overcast
5:51 AM 42.1 °F 38.4 °F 28.0 °F 58% 29.96 in 10.0 mi South 5.8 mph - N/A   Overcast
6:51 AM 43.0 °F 40.3 °F 28.0 °F 56% 29.94 in 10.0 mi SSW 4.6 mph - N/A   Overcast
7:51 AM 43.0 °F 41.3 °F 30.9 °F 62% 29.93 in 10.0 mi South 3.5 mph - N/A   Overcast
8:51 AM 44.1 °F - 30.9 °F 60% 29.92 in 10.0 mi Calm Calm - 0.00 in Rain Light Rain
9:51 AM 46.0 °F - 28.0 °F 50% 29.88 in 10.0 mi Calm Calm - 0.00 in   Mostly Cloudy
10:51 AM 48.9 °F - 24.1 °F 38% 29.86 in 10.0 mi NW 9.2 mph - N/A   Scattered Clouds
11:51 AM 51.1 °F - 26.1 °F 38% 29.83 in 10.0 mi NW 5.8 mph - N/A   Scattered Clouds
12:51 PM 55.0 °F - 21.0 °F 27% 29.79 in 10.0 mi WNW 4.6 mph - N/A   Partly Cloudy
1:51 PM 59.0 °F - 14.0 °F 17% 29.74 in 10.0 mi Calm Calm - N/A   Partly Cloudy
2:51 PM 61.0 °F - 18.0 °F 19% 29.72 in 10.0 mi NNW 13.8 mph 23.0 mph N/A   Partly Cloudy
3:51 PM 60.1 °F - 23.0 °F 24% 29.70 in 10.0 mi NW 18.4 mph 24.2 mph N/A   Partly Cloudy
4:51 PM 60.1 °F - 23.0 °F 24% 29.72 in 10.0 mi NNW 20.7 mph 28.8 mph N/A   Partly Cloudy
5:51 PM 57.9 °F - 19.0 °F 22% 29.76 in 10.0 mi NW 17.3 mph - N/A   Partly Cloudy
6:51 PM 57.0 °F - 15.1 °F 19% 29.80 in 10.0 mi NNW 17.3 mph 27.6 mph N/A   Partly Cloudy
7:51 PM 54.0 °F - 16.0 °F 22% 29.84 in 10.0 mi NNW 19.6 mph 26.5 mph N/A   Partly Cloudy
8:51 PM 51.1 °F - 17.1 °F 26% 29.88 in 10.0 mi NNW 18.4 mph - N/A   Clear
9:51 PM 48.9 °F - 19.0 °F 31% 29.93 in 10.0 mi NW 25.3 mph 32.2 mph N/A   Clear
10:51 PM 46.0 °F 39.3 °F 21.0 °F 37% 29.96 in 10.0 mi NNW 16.1 mph 24.2 mph N/A   Clear
11:51 PM 43.0 °F 34.8 °F 19.0 °F 38% 29.99 in 10.0 mi NNW 18.4 mph 26.5 mph N/A   Clear